Weather History for Hong Kong, HK

Change the Weather History Date:

Tuesday, March 19, 2013

  Actual Average Record
Temperature  
Mean Temperature 76 °F -  
Max Temperature 79 °F 75 °F 82 °F (1999)
Min Temperature 73 °F 67 °F 55 °F (2011)
Cooling Degree Days 11    
Growing Degree Days 26 (Base 50)    
Moisture  
Dew Point 71 °F    
Average Humidity 83    
Maximum Humidity 94    
Minimum Humidity 74    
Precipitation  
Precipitation 0.98 in - - ()
Sea Level Pressure  
Sea Level Pressure 29.82 in    
Wind  
Wind Speed 8 mph ()    
Max Wind Speed 17 mph    
Max Gust Speed -    
Visibility 5.9 miles    
Events Rain , Thunderstorm    
Averages and records for this station are not official NWS values.
T = Trace of Precipitation, MM = Missing Value Source: Averaged Metar Reports

Daily Weather History Graph

Daily Weather History Graph

Search for Another Location

Airport:

Trip Planner

Search our weather history database for the weather conditions in past years. The results will help you decide how hot, cold, wet, or windy it might be!

Date:

Astronomy

Mar. 19, 2013 Rise Set
Actual Time 6:29 AM HKT 6:34 PM HKT
Civil Twilight 6:07 AM HKT 6:57 PM HKT
Nautical Twilight 5:41 AM HKT 7:23 PM HKT
Astronomical Twilight 5:15 AM HKT 7:49 PM HKT
Moon 11:29 AM HKT (3/19) 12:16 AM HKT (3/19)
Length of Visible Light 12h 50m
Length of Day
12h 05m
Waxing Crescent, 45% of the Moon is Illuminated
Mar 19
Waxing Crescent
Mar 20
First Quarter
Mar 27
Full
Apr 3
Last Quarter
Apr 10
New

Hourly Weather History & Observations

Time (HKT) Temp. Dew Point Humidity Pressure Visibility Wind Dir Wind Speed Gust Speed Precip Events Conditions
12:00 AM 75.2 °F 69.8 °F 83% 29.83 in 4.3 mi ENE 6.9 mph - N/A   Partly Cloudy
12:30 AM 75.2 °F 71.6 °F 89% 29.83 in 6.2 mi ENE 5.8 mph - N/A   Partly Cloudy
1:00 AM 77.0 °F 69.8 °F 78% 29.83 in 6.2 mi SE 5.8 mph - N/A   Partly Cloudy
1:30 AM 75.2 °F 69.8 °F 83% 29.80 in 6.2 mi SSE 6.9 mph - N/A   Partly Cloudy
2:00 AM 76 °F 70 °F 77% 29.81 in 5 mi SSE 6.7 mph - -   Partly Cloudy
2:00 AM 77.0 °F 69.8 °F 78% 29.80 in 6.2 mi SSE 6.9 mph - N/A   Partly Cloudy
2:30 AM 75.2 °F 71.6 °F 89% 29.80 in 6.2 mi SSE 8.1 mph - N/A   Partly Cloudy
3:00 AM 75.2 °F 71.6 °F 89% 29.80 in 6.2 mi Variable 3.5 mph - N/A   Scattered Clouds
3:30 AM 75.2 °F 71.6 °F 89% 29.77 in 6.2 mi NNE 3.5 mph - N/A   Scattered Clouds
4:00 AM 75.2 °F 71.6 °F 89% 29.77 in 5.6 mi NNE 5.8 mph - N/A   Partly Cloudy
4:30 AM 75.2 °F 71.6 °F 89% 29.77 in 6.2 mi NE 3.5 mph - N/A   Partly Cloudy
5:00 AM 75.2 °F 71.6 °F 89% 29.77 in 6.2 mi Variable 3.5 mph - N/A   Partly Cloudy
5:30 AM 75.2 °F 71.6 °F 89% 29.80 in 6.2 mi Variable 3.5 mph - N/A   Scattered Clouds
6:00 AM 75.2 °F 71.6 °F 89% 29.80 in 6.2 mi Variable 3.5 mph - N/A   Scattered Clouds
6:30 AM 75.2 °F 71.6 °F 89% 29.83 in 6.2 mi Variable 5.8 mph - N/A   Scattered Clouds
7:00 AM 77.0 °F 71.6 °F 83% 29.83 in 5.6 mi NNE 4.6 mph - N/A   Scattered Clouds
7:30 AM 75.2 °F 71.6 °F 89% 29.86 in 5.0 mi NNE 4.6 mph - N/A   Scattered Clouds
8:00 AM 76 °F 71 °F 81% 29.88 in 4 mi 2.2 mph - -   Partly Cloudy
8:00 AM 77.0 °F 71.6 °F 83% 29.86 in 6.2 mi Variable 3.5 mph - N/A   Scattered Clouds
8:30 AM 77.0 °F 71.6 °F 83% 29.86 in 6.2 mi Variable 3.5 mph - N/A   Scattered Clouds
9:00 AM 77.0 °F 71.6 °F 83% 29.89 in 6.2 mi Variable 3.5 mph - N/A   Scattered Clouds
9:30 AM 77.0 °F 71.6 °F 83% 29.89 in 6.2 mi SSE 10.4 mph - N/A   Scattered Clouds
10:00 AM 78.8 °F 71.6 °F 78% 29.89 in 6.2 mi SSE 11.5 mph - N/A   Scattered Clouds
10:30 AM 78.8 °F 71.6 °F 78% 29.89 in 6.2 mi SSE 13.8 mph - N/A   Scattered Clouds
11:00 AM 78.8 °F 71.6 °F 78% 29.86 in 6.2 mi SSE 12.7 mph - N/A   Scattered Clouds
11:30 AM 78.8 °F 71.6 °F 78% 29.86 in 6.2 mi SSE 12.7 mph - N/A   Scattered Clouds
12:00 PM 78.8 °F 71.6 °F 78% 29.86 in 6.2 mi SSE 10.4 mph - N/A   Scattered Clouds
12:30 PM 77.0 °F 71.6 °F 83% 29.86 in 6.2 mi SE 15.0 mph - N/A   Scattered Clouds
1:00 PM 78.8 °F 71.6 °F 78% 29.83 in 6.2 mi SSE 10.4 mph - N/A   Scattered Clouds
1:30 PM 78.8 °F 69.8 °F 74% 29.83 in 6.2 mi South 11.5 mph - N/A   Scattered Clouds
2:00 PM 78 °F 71 °F 75% 29.83 in 11 mi SSE 8.9 mph - -   Partly Cloudy
2:00 PM 77.0 °F 71.6 °F 83% 29.83 in 6.2 mi SSE 9.2 mph - N/A   Scattered Clouds
2:13 PM 77.0 °F 71.6 °F 83% 29.80 in 6.2 mi South 10.4 mph - N/A Thunderstorm Scattered Clouds
2:30 PM 77.0 °F 71.6 °F 83% 29.80 in 6.2 mi SSW 13.8 mph - N/A Thunderstorm Scattered Clouds
3:00 PM 78.8 °F 69.8 °F 74% 29.80 in 6.2 mi SSW 5.8 mph - N/A   Scattered Clouds
3:24 PM 77.0 °F 71.6 °F 83% 29.80 in 6.2 mi SSE 9.2 mph - N/A Rain , Thunderstorm Light Rain Showers
3:30 PM 77.0 °F 71.6 °F 83% 29.80 in 6.2 mi South 10.4 mph - N/A Rain , Thunderstorm Light Rain Showers
3:36 PM 78.8 °F 71.6 °F 78% 29.83 in 6.2 mi SW 17.3 mph - N/A Rain , Thunderstorm Light Thunderstorms and Rain
3:46 PM 78.8 °F 71.6 °F 78% 29.83 in 1.4 mi SW 17.3 mph - N/A Rain , Thunderstorm Heavy Thunderstorms and Rain
4:00 PM 73.4 °F 69.8 °F 88% 29.77 in 5.0 mi SSE 16.1 mph - N/A Rain , Thunderstorm Light Rain Showers
4:15 PM 75.2 °F 71.6 °F 89% 29.77 in 6.2 mi SE 8.1 mph - N/A Rain Light Rain Showers
4:30 PM 77.0 °F 69.8 °F 78% 29.80 in 6.2 mi South 10.4 mph - N/A Rain Light Rain Showers
4:40 PM 75.2 °F 71.6 °F 89% 29.80 in 6.2 mi South 8.1 mph - N/A Thunderstorm Scattered Clouds
4:51 PM 75.2 °F 71.6 °F 89% 29.80 in 6.2 mi SSW 10.4 mph - N/A Rain , Thunderstorm Light Thunderstorms and Rain
5:00 PM 77.0 °F 69.8 °F 78% 29.83 in 4.3 mi SSW 13.8 mph - N/A Rain , Thunderstorm Thunderstorms and Rain
5:10 PM 75.2 °F 71.6 °F 89% 29.80 in 1.7 mi SSW 13.8 mph - N/A Rain , Thunderstorm Heavy Thunderstorms and Rain
5:20 PM 75.2 °F 71.6 °F 89% 29.80 in 3.1 mi SE 9.2 mph - N/A Rain , Thunderstorm Light Thunderstorms and Rain
5:30 PM 75.2 °F 71.6 °F 89% 29.80 in 4.3 mi Variable 8.1 mph - N/A Rain , Thunderstorm Light Rain Showers
5:36 PM 75.2 °F 69.8 °F 83% 29.80 in 6.2 mi Variable 9.2 mph - N/A Rain , Thunderstorm Light Thunderstorms and Rain
5:48 PM 77.0 °F 69.8 °F 78% 29.80 in - SW 8.1 mph - N/A Rain , Thunderstorm Thunderstorms and Rain
6:00 PM 77.0 °F 71.6 °F 83% 29.80 in 5.0 mi South 8.1 mph - N/A Rain , Thunderstorm Light Thunderstorms and Rain
6:09 PM 75.2 °F 71.6 °F 89% 29.83 in - SSW 17.3 mph - N/A Rain , Thunderstorm Thunderstorms and Rain
6:20 PM 75.2 °F 71.6 °F 89% 29.80 in 4.3 mi South 13.8 mph - N/A Rain , Thunderstorm Light Rain Showers
6:30 PM 77.0 °F 71.6 °F 83% 29.80 in 6.2 mi South 9.2 mph - N/A Rain , Thunderstorm Light Rain Showers
6:45 PM 75.2 °F 68.0 °F 78% 29.80 in 6.2 mi SSE 12.7 mph - N/A Rain Light Rain Showers
7:00 PM 75.2 °F 68.0 °F 78% 29.80 in 6.2 mi ESE 11.5 mph - N/A Rain Light Rain Showers
7:30 PM 75.2 °F 71.6 °F 89% 29.83 in 6.2 mi SSE 15.0 mph - N/A   Scattered Clouds
8:00 PM 76 °F 71 °F 78% 29.84 in 10 mi SSE 13.4 mph - - Rain Light Rain Showers
8:00 PM 77.0 °F 69.8 °F 78% 29.83 in 6.2 mi SSE 13.8 mph - N/A   Scattered Clouds
8:30 PM 75.2 °F 71.6 °F 89% 29.86 in 6.2 mi SSE 11.5 mph - N/A   Scattered Clouds
9:00 PM 77.0 °F 71.6 °F 83% 29.86 in 6.2 mi SSE 11.5 mph - N/A   Scattered Clouds
9:30 PM 77.0 °F 71.6 °F 83% 29.86 in 6.2 mi SE 12.7 mph - N/A   Scattered Clouds
10:00 PM 77.0 °F 71.6 °F 83% 29.86 in 6.2 mi SSE 11.5 mph - N/A   Scattered Clouds
10:30 PM 77.0 °F 71.6 °F 83% 29.86 in 6.2 mi SE 11.5 mph - N/A   Partly Cloudy
11:00 PM 77.0 °F 71.6 °F 83% 29.86 in 6.2 mi SSE 11.5 mph - N/A   Partly Cloudy
11:30 PM 75.2 °F 73.4 °F 94% 29.86 in 6.2 mi SSE 11.5 mph - N/A   Scattered Clouds